| time (UTC) | temp C | wind direction | speed KPH | gust KPH | rain 1hr cm | rain 24hr cm | rain mn cm | humidity % | barometer mb |
| 20260505193920 | 30 | 0.0 | 0.0 | 0.00 | 0.00 | 0.00 | 52 | 930.8 | |
| 20260505192913 | 30 | 0.0 | 0.0 | 0.00 | 0.00 | 0.00 | 52 | 930.8 | |
| 20260505191906 | 30 | 0.0 | 0.0 | 0.00 | 0.00 | 0.00 | 51 | 930.7 | |
| 20260505190900 | 30 | 0.0 | 0.0 | 0.00 | 0.00 | 0.00 | 51 | 930.7 | |
| 20260505185853 | 30 | 0.0 | 0.0 | 0.00 | 0.00 | 0.00 | 50 | 930.8 | |
| 20260505184846 | 31 | 0.0 | 0.0 | 0.00 | 0.00 | 0.00 | 50 | 931.0 | |
| 20260505183839 | 30 | 0.0 | 0.0 | 0.00 | 0.00 | 0.00 | 50 | 931.1 | |
| 20260505182832 | 31 | 0.0 | 0.0 | 0.00 | 0.00 | 0.00 | 49 | 931.0 | |
| 20260505181825 | 31 | 0.0 | 0.0 | 0.00 | 0.00 | 0.00 | 50 | 931.2 | |
| 20260505180818 | 30 | 0.0 | 0.0 | 0.00 | 0.00 | 0.00 | 50 | 931.3 | |
| 20260505175812 | 30 | 0.0 | 0.0 | 0.00 | 0.00 | 0.00 | 50 | 931.5 | |
| 20260505174805 | 31 | 0.0 | 0.0 | 0.00 | 0.00 | 0.00 | 50 | 931.7 | |
| 20260505173758 | 31 | 0.0 | 0.0 | 0.00 | 0.00 | 0.00 | 50 | 931.7 | |
| 20260505172751 | 31 | 0.0 | 0.0 | 0.00 | 0.00 | 0.00 | 50 | 932.0 | |
| 20260505171744 | 30 | 0.0 | 0.0 | 0.00 | 0.00 | 0.00 | 49 | 932.1 | |
| 20260505170738 | 30 | 0.0 | 0.0 | 0.00 | 0.00 | 0.00 | 49 | 932.2 | |
| 20260505165731 | 30 | 0.0 | 0.0 | 0.00 | 0.00 | 0.00 | 49 | 932.3 | |
| 20260505164724 | 30 | 0.0 | 0.0 | 0.00 | 0.00 | 0.00 | 48 | 932.3 | |
| 20260505163717 | 30 | 0.0 | 0.0 | 0.00 | 0.00 | 0.00 | 48 | 932.2 | |
| 20260505162711 | 30 | 0.0 | 0.0 | 0.00 | 0.00 | 0.00 | 48 | 932.0 | |
| 20260505161703 | 31 | 0.0 | 0.0 | 0.00 | 0.00 | 0.00 | 48 | 931.8 | |
| 20260505160656 | 30 | 0.0 | 0.0 | 0.00 | 0.00 | 0.00 | 49 | 931.9 | |
| 20260505152629 | 30 | 0.0 | 0.0 | 0.00 | 0.00 | 0.00 | 48 | 932.0 | |
| 20260505151622 | 30 | 0.0 | 0.0 | 0.00 | 0.00 | 0.00 | 48 | 931.8 | |
| 20260505150616 | 30 | 0.0 | 0.0 | 0.00 | 0.00 | 0.00 | 48 | 931.7 | |
| 20260505140534 | 31 | 0.0 | 0.0 | 0.00 | 0.00 | 0.00 | 47 | 931.8 | |
| 20260505124440 | 31 | 0.0 | 0.0 | 0.00 | 0.00 | 0.00 | 43 | 930.9 | |
| 20260505123433 | 32 | 0.0 | 0.0 | 0.00 | 0.00 | 0.00 | 44 | 930.5 | |
| 20260505122721 | 32 | 0.0 | 0.0 | 0.00 | 0.00 | 0.00 | 43 | 930.3 | |
| 20260505121714 | 32 | 0.0 | 0.0 | 0.00 | 0.00 | 0.00 | 43 | 929.5 | |
| 20260505120707 | 32 | 0.0 | 0.0 | 0.00 | 0.00 | 0.00 | 45 | 929.0 | |
| 20260505115701 | 32 | 0.0 | 0.0 | 0.00 | 0.00 | 0.00 | 44 | 929.2 | |
| 20260505114653 | 32 | 0.0 | 0.0 | 0.00 | 0.00 | 0.00 | 44 | 928.7 | |
| 20260505113646 | 32 | 0.0 | 0.0 | 0.00 | 0.00 | 0.00 | 40 | 928.7 | |
| 20260505112640 | 32 | 0.0 | 0.0 | 0.00 | 0.00 | 0.00 | 38 | 928.3 | |
| 20260505111633 | 32 | 0.0 | 0.0 | 0.00 | 0.00 | 0.00 | 40 | 928.0 | |
| 20260505110626 | 32 | 0.0 | 0.0 | 0.00 | 0.00 | 0.00 | 41 | 927.8 | |
| 20260505101552 | 32 | 0.0 | 0.0 | 0.00 | 0.00 | 0.00 | 34 | 927.7 | |
| 20260505100545 | 32 | 0.0 | 0.0 | 0.00 | 0.00 | 0.00 | 37 | 927.7 | |
| 20260505095538 | 32 | 0.0 | 0.0 | 0.00 | 0.00 | 0.00 | 38 | 927.9 | |
| 20260505094531 | 32 | 0.0 | 0.0 | 0.00 | 0.00 | 0.00 | 39 | 928.0 | |
| 20260505093524 | 32 | 0.0 | 0.0 | 0.00 | 0.00 | 0.00 | 41 | 928.2 | |
| 20260505092517 | 32 | 0.0 | 0.0 | 0.00 | 0.00 | 0.00 | 41 | 928.2 | |
| 20260505091511 | 32 | 0.0 | 0.0 | 0.00 | 0.00 | 0.00 | 43 | 928.3 | |
| 20260505090503 | 32 | 0.0 | 0.0 | 0.00 | 0.00 | 0.00 | 42 | 928.5 | |
| 20260505085457 | 32 | 0.0 | 0.0 | 0.00 | 0.00 | 0.00 | 42 | 928.6 | |
| 20260505084450 | 32 | 0.0 | 0.0 | 0.00 | 0.00 | 0.00 | 41 | 928.8 | |
| 20260505083443 | 32 | 0.0 | 0.0 | 0.00 | 0.00 | 0.00 | 42 | 929.0 | |
| 20260505082436 | 32 | 0.0 | 0.0 | 0.00 | 0.00 | 0.00 | 42 | 929.3 | |
| 20260505081429 | 32 | 0.0 | 0.0 | 0.00 | 0.00 | 0.00 | 42 | 929.6 | |
| 20260505080422 | 32 | 0.0 | 0.0 | 0.00 | 0.00 | 0.00 | 43 | 929.8 | |
| 20260505075415 | 32 | 0.0 | 0.0 | 0.00 | 0.00 | 0.00 | 43 | 929.9 | |
| 20260505074408 | 32 | 0.0 | 0.0 | 0.00 | 0.00 | 0.00 | 44 | 930.1 | |
| 20260505073402 | 32 | 0.0 | 0.0 | 0.00 | 0.00 | 0.00 | 45 | 930.3 | |
| 20260505072355 | 32 | 0.0 | 0.0 | 0.00 | 0.00 | 0.00 | 46 | 930.5 | |
| 20260505071348 | 32 | 0.0 | 0.0 | 0.00 | 0.00 | 0.00 | 47 | 930.7 | |
| 20260505070341 | 32 | 0.0 | 0.0 | 0.00 | 0.00 | 0.00 | 47 | 930.9 | |
| 20260505065334 | 32 | 0.0 | 0.0 | 0.00 | 0.00 | 0.00 | 46 | 931.0 | |
| 20260505064327 | 32 | 0.0 | 0.0 | 0.00 | 0.00 | 0.00 | 47 | 931.2 | |
| 20260505063321 | 31 | 0.0 | 0.0 | 0.00 | 0.00 | 0.00 | 47 | 931.3 | |
| 20260505062314 | 31 | 0.0 | 0.0 | 0.00 | 0.00 | 0.00 | 50 | 931.4 | |
| 20260505061307 | 31 | 0.0 | 0.0 | 0.00 | 0.00 | 0.00 | 52 | 931.5 | |
| 20260505060300 | 31 | 0.0 | 0.0 | 0.00 | 0.00 | 0.00 | 50 | 931.6 | |
| 20260505055253 | 31 | 0.0 | 0.0 | 0.00 | 0.00 | 0.00 | 50 | 931.7 | |
| 20260505054247 | 31 | 0.0 | 0.0 | 0.00 | 0.00 | 0.00 | 52 | 931.7 | |
| 20260505053240 | 31 | 0.0 | 0.0 | 0.00 | 0.00 | 0.00 | 51 | 931.9 | |
| 20260505052233 | 31 | 0.0 | 0.0 | 0.00 | 0.00 | 0.00 | 50 | 932.0 | |
| 20260505051226 | 31 | 0.0 | 0.0 | 0.00 | 0.00 | 0.00 | 52 | 932.1 | |
| 20260505050219 | 31 | 0.0 | 0.0 | 0.00 | 0.00 | 0.00 | 51 | 932.2 | |
| 20260505041145 | 30 | 0.0 | 0.0 | 0.00 | 0.00 | 0.00 | 54 | 932.7 | |
| 20260505040139 | 30 | 0.0 | 0.0 | 0.00 | 0.00 | 0.00 | 54 | 932.8 | |
| 20260505035132 | 30 | 0.0 | 0.0 | 0.00 | 0.00 | 0.00 | 54 | 932.8 | |
| 20260505034125 | 30 | 0.0 | 0.0 | 0.00 | 0.00 | 0.00 | 54 | 932.8 | |
| 20260505033118 | 30 | 0.0 | 0.0 | 0.00 | 0.00 | 0.00 | 54 | 932.8 | |
| 20260505032111 | 30 | 0.0 | 0.0 | 0.00 | 0.00 | 0.00 | 54 | 932.8 | |
| 20260505031104 | 31 | 0.0 | 0.0 | 0.00 | 0.00 | 0.00 | 53 | 932.8 | |
| 20260505030057 | 31 | 0.0 | 0.0 | 0.00 | 0.00 | 0.00 | 52 | 932.8 | |
| 20260505025050 | 30 | 0.0 | 0.0 | 0.00 | 0.00 | 0.00 | 53 | 932.8 | |
| 20260505024044 | 30 | 0.0 | 0.0 | 0.00 | 0.00 | 0.00 | 52 | 932.8 | |
| 20260505023037 | 30 | 0.0 | 0.0 | 0.00 | 0.00 | 0.00 | 52 | 932.7 | |
| 20260505022030 | 30 | 0.0 | 0.0 | 0.00 | 0.00 | 0.00 | 52 | 932.7 | |
| 20260505021024 | 30 | 0.0 | 0.0 | 0.00 | 0.00 | 0.00 | 51 | 932.6 | |
| 20260505020017 | 30 | 0.0 | 0.0 | 0.00 | 0.00 | 0.00 | 51 | 932.5 | |
| 20260505015010 | 31 | 0.0 | 0.0 | 0.00 | 0.00 | 0.00 | 50 | 932.5 | |
| 20260505014003 | 31 | 0.0 | 0.0 | 0.00 | 0.00 | 0.00 | 50 | 932.5 | |
| 20260505012956 | 31 | 0.0 | 0.0 | 0.00 | 0.00 | 0.00 | 49 | 932.3 | |
| 20260505011949 | 31 | 0.0 | 0.0 | 0.00 | 0.00 | 0.00 | 48 | 932.2 | |
| 20260505010943 | 31 | 0.0 | 0.0 | 0.00 | 0.00 | 0.00 | 48 | 932.1 | |
| 20260505005936 | 31 | 0.0 | 0.0 | 0.00 | 0.00 | 0.00 | 47 | 932.0 | |
| 20260505004929 | 31 | 0.0 | 0.0 | 0.00 | 0.00 | 0.00 | 47 | 931.9 | |
| 20260505003922 | 31 | 0.0 | 0.0 | 0.00 | 0.00 | 0.00 | 47 | 931.9 | |
| 20260505002915 | 31 | 0.0 | 0.0 | 0.00 | 0.00 | 0.00 | 47 | 931.8 | |
| 20260505001909 | 31 | 0.0 | 0.0 | 0.00 | 0.00 | 0.00 | 47 | 931.8 | |
| 20260505000902 | 31 | 0.0 | 0.0 | 0.00 | 0.00 | 0.00 | 47 | 931.7 | |
| 20260504235855 | 31 | 0.0 | 0.0 | 0.00 | 0.00 | 0.00 | 47 | 931.7 | |
| 20260504234848 | 31 | 0.0 | 0.0 | 0.00 | 0.00 | 0.00 | 47 | 931.7 | |
| 20260504233841 | 31 | 0.0 | 0.0 | 0.00 | 0.00 | 0.00 | 47 | 931.4 | |
| 20260504232834 | 31 | 0.0 | 0.0 | 0.00 | 0.00 | 0.00 | 46 | 931.1 | |
| 20260504231827 | 31 | 0.0 | 0.0 | 0.00 | 0.00 | 0.00 | 46 | 931.0 | |
| 20260504230820 | 31 | 0.0 | 0.0 | 0.00 | 0.00 | 0.00 | 46 | 930.9 | |
| 20260504225814 | 31 | 0.0 | 0.0 | 0.00 | 0.00 | 0.00 | 46 | 930.8 | |
| 20260504224807 | 31 | 0.0 | 0.0 | 0.00 | 0.00 | 0.00 | 46 | 930.7 | |
| 20260504223800 | 31 | 0.0 | 0.0 | 0.00 | 0.00 | 0.00 | 46 | 930.8 | |
| 20260504222753 | 31 | 0.0 | 0.0 | 0.00 | 0.00 | 0.00 | 45 | 930.6 | |
| 20260504221746 | 31 | 0.0 | 0.0 | 0.00 | 0.00 | 0.00 | 46 | 930.6 | |
| 20260504220739 | 31 | 0.0 | 0.0 | 0.00 | 0.00 | 0.00 | 45 | 930.6 | |
| 20260504215733 | 31 | 0.0 | 0.0 | 0.00 | 0.00 | 0.00 | 45 | 930.5 | |
| 20260504214725 | 31 | 0.0 | 0.0 | 0.00 | 0.00 | 0.00 | 44 | 930.5 | |
| 20260504213719 | 31 | 0.0 | 0.0 | 0.00 | 0.00 | 0.00 | 44 | 930.7 | |
| 20260504212712 | 31 | 0.0 | 0.0 | 0.00 | 0.00 | 0.00 | 44 | 930.8 | |
| 20260504211702 | 31 | 0.0 | 0.0 | 0.00 | 0.00 | 0.00 | 44 | 930.8 | |
| 20260504210655 | 31 | 0.0 | 0.0 | 0.00 | 0.00 | 0.00 | 44 | 930.9 | |
| 20260504205648 | 31 | 0.0 | 0.0 | 0.00 | 0.00 | 0.00 | 44 | 930.9 | |
| 20260504204641 | 31 | 0.0 | 0.0 | 0.00 | 0.00 | 0.00 | 44 | 931.0 | |
| 20260504203634 | 31 | 0.0 | 0.0 | 0.00 | 0.00 | 0.00 | 44 | 931.0 | |
| 20260504202627 | 31 | 0.0 | 0.0 | 0.00 | 0.00 | 0.00 | 43 | 931.0 | |
| 20260504201621 | 31 | 0.0 | 0.0 | 0.00 | 0.00 | 0.00 | 43 | 930.9 | |
| 20260504200614 | 31 | 0.0 | 0.0 | 0.00 | 0.00 | 0.00 | 43 | 931.1 | |
| 20260504195607 | 31 | 0.0 | 0.0 | 0.00 | 0.00 | 0.00 | 43 | 931.2 | |
| 20260504194600 | 31 | 0.0 | 0.0 | 0.00 | 0.00 | 0.00 | 42 | 931.0 |